MTN324 KDEN-KPRC

Flight info

Callsign MTN324
Flight time N/A
Altitude 34000
Route BAYLR6 TEHRU JASSE DRK
Aircraft E75L/M-SDE3GILORVW/S

Departure

Time N/A
Airport Denver International Airport (KDEN)

Arrival

Time 2026-04-24 19:39
Airport Prescott Regional Airport - Ernest A. Love Field (KPRC)
Time Latitude Longitude Altitude Speed Heading
2026-04-24 18:54 37.82168 -109.10634 33877 ft 388 kts 237°
2026-04-24 18:55 37.77198 -109.18674 33908 ft 388 kts 237°
2026-04-24 18:56 37.73866 -109.24051 33928 ft 388 kts 237°
2026-04-24 18:56 37.71096 -109.28504 33951 ft 388 kts 237°
2026-04-24 18:57 37.67744 -109.33854 33975 ft 388 kts 237°
2026-04-24 18:57 37.64403 -109.39202 33998 ft 388 kts 237°
2026-04-24 18:58 37.61057 -109.44562 33997 ft 388 kts 237°
2026-04-24 18:58 37.57721 -109.49916 34001 ft 388 kts 237°
2026-04-24 18:59 37.54415 -109.55241 34005 ft 388 kts 237°
2026-04-24 18:59 37.51072 -109.60589 33980 ft 387 kts 237°
2026-04-24 19:00 37.47730 -109.65926 33965 ft 388 kts 237°
2026-04-24 19:00 37.44394 -109.71255 33929 ft 387 kts 237°
2026-04-24 19:01 37.41032 -109.76558 33896 ft 387 kts 237°
2026-04-24 19:01 37.37695 -109.81828 33873 ft 388 kts 237°
2026-04-24 19:02 37.34336 -109.87131 33850 ft 387 kts 237°
2026-04-24 19:02 37.30998 -109.92451 33845 ft 387 kts 237°
2026-04-24 19:03 37.27653 -109.97743 33856 ft 386 kts 237°
2026-04-24 19:03 37.24327 -110.02995 33862 ft 386 kts 237°
2026-04-24 19:04 37.20971 -110.08298 33840 ft 387 kts 237°
2026-04-24 19:04 37.17622 -110.13547 33847 ft 386 kts 237°
2026-04-24 19:05 37.14273 -110.18805 33847 ft 385 kts 237°
2026-04-24 19:05 37.10935 -110.24059 33846 ft 385 kts 237°
2026-04-24 19:06 37.07598 -110.29274 33846 ft 385 kts 237°
2026-04-24 19:06 37.04246 -110.34499 33847 ft 384 kts 237°
2026-04-24 19:07 37.00882 -110.39722 33847 ft 385 kts 237°
2026-04-24 19:07 36.97524 -110.44939 33842 ft 383 kts 237°
2026-04-24 19:08 36.94182 -110.50144 33843 ft 384 kts 237°
2026-04-24 19:08 36.90820 -110.55297 33854 ft 384 kts 236°
2026-04-24 19:09 36.87455 -110.60469 33852 ft 384 kts 237°
2026-04-24 19:09 36.84092 -110.65648 33853 ft 384 kts 237°
2026-04-24 19:10 36.80793 -110.70814 33848 ft 383 kts 237°
2026-04-24 19:10 36.77482 -110.75967 33856 ft 383 kts 237°
2026-04-24 19:11 36.74128 -110.81150 33852 ft 383 kts 237°
2026-04-24 19:11 36.70780 -110.86321 33857 ft 383 kts 237°
2026-04-24 19:12 36.67424 -110.91480 33845 ft 382 kts 237°
2026-04-24 19:12 36.64074 -110.96624 33854 ft 382 kts 237°
2026-04-24 19:13 36.61295 -111.00906 33850 ft 383 kts 237°
2026-04-24 19:13 36.57388 -111.06882 33857 ft 382 kts 236°
2026-04-24 19:14 36.54006 -111.11998 33853 ft 382 kts 236°
2026-04-24 19:14 36.50654 -111.17127 33849 ft 382 kts 236°
2026-04-24 19:15 36.47292 -111.22246 33845 ft 382 kts 236°
2026-04-24 19:15 36.43931 -111.27352 33852 ft 382 kts 236°
2026-04-24 19:16 36.38910 -111.34969 33849 ft 382 kts 236°
2026-04-24 19:16 36.35534 -111.40058 33842 ft 382 kts 236°
2026-04-24 19:17 36.32168 -111.45154 33836 ft 381 kts 236°
2026-04-24 19:17 36.28805 -111.50226 33838 ft 381 kts 236°
2026-04-24 19:18 36.25436 -111.55290 33837 ft 381 kts 236°
2026-04-24 19:18 36.22055 -111.60341 33838 ft 380 kts 237°
2026-04-24 19:19 36.18705 -111.65409 33843 ft 380 kts 236°
2026-04-24 19:19 36.15330 -111.70468 33852 ft 380 kts 236°
2026-04-24 19:20 36.11974 -111.75496 33856 ft 378 kts 236°
2026-04-24 19:20 36.08342 -111.80181 33793 ft 388 kts 223°
2026-04-24 19:21 36.05949 -111.81774 33550 ft 395 kts 211°
2026-04-24 19:21 36.03267 -111.82839 33114 ft 410 kts 205°
2026-04-24 19:21 36.00471 -111.83738 32565 ft 417 kts 204°
2026-04-24 19:21 35.97645 -111.84632 31990 ft 421 kts 204°
2026-04-24 19:22 35.95759 -111.85229 31620 ft 423 kts 204°
2026-04-24 19:22 35.91926 -111.86446 30850 ft 426 kts 204°
2026-04-24 19:22 35.89080 -111.87353 30301 ft 427 kts 204°
2026-04-24 19:22 35.86202 -111.88269 29684 ft 424 kts 204°
2026-04-24 19:23 35.83361 -111.89177 29163 ft 419 kts 204°
2026-04-24 19:23 35.80546 -111.90082 28598 ft 416 kts 203°
2026-04-24 19:23 35.77754 -111.90981 28037 ft 413 kts 203°
2026-04-24 19:23 35.74979 -111.91873 27494 ft 410 kts 203°
2026-04-24 19:24 35.72229 -111.92760 26943 ft 407 kts 203°
2026-04-24 19:24 35.69498 -111.93640 26397 ft 404 kts 202°
2026-04-24 19:24 35.66787 -111.94515 25859 ft 401 kts 202°
2026-04-24 19:24 35.64097 -111.95383 25317 ft 398 kts 202°
2026-04-24 19:25 35.61420 -111.96247 24784 ft 396 kts 202°
2026-04-24 19:25 35.58792 -111.97096 24279 ft 394 kts 202°
2026-04-24 19:25 35.56154 -111.97949 23768 ft 391 kts 201°
2026-04-24 19:25 35.53527 -111.98798 23224 ft 388 kts 201°
2026-04-24 19:26 35.50935 -111.99639 22766 ft 384 kts 201°
2026-04-24 19:26 35.48358 -112.00476 22265 ft 382 kts 201°
2026-04-24 19:26 35.45796 -112.01310 21779 ft 380 kts 201°
2026-04-24 19:26 35.43240 -112.02143 21283 ft 378 kts 201°
2026-04-24 19:27 35.40702 -112.02968 20794 ft 376 kts 201°
2026-04-24 19:27 35.38187 -112.03787 20308 ft 373 kts 201°
2026-04-24 19:27 35.35715 -112.04591 19835 ft 371 kts 200°
2026-04-24 19:27 35.33225 -112.05403 19344 ft 369 kts 200°
2026-04-24 19:28 35.30746 -112.06209 18858 ft 367 kts 200°
2026-04-24 19:28 35.28287 -112.07012 18360 ft 364 kts 200°
2026-04-24 19:28 35.25843 -112.07808 17843 ft 361 kts 200°
2026-04-24 19:28 35.23422 -112.08600 17386 ft 359 kts 200°
2026-04-24 19:29 35.18620 -112.10168 16395 ft 355 kts 199°
2026-04-24 19:29 35.16242 -112.10947 15930 ft 352 kts 199°
2026-04-24 19:29 35.13878 -112.11726 15451 ft 351 kts 199°
2026-04-24 19:30 35.11552 -112.12493 14971 ft 348 kts 199°
2026-04-24 19:30 35.09230 -112.13255 14493 ft 341 kts 199°
2026-04-24 19:30 35.06970 -112.13990 14021 ft 331 kts 199°
2026-04-24 19:30 35.04774 -112.14709 13570 ft 322 kts 199°
2026-04-24 19:31 35.02637 -112.15410 13149 ft 313 kts 199°
2026-04-24 19:31 35.00559 -112.16097 12710 ft 306 kts 199°
2026-04-24 19:31 34.98530 -112.16762 12305 ft 298 kts 199°
2026-04-24 19:31 34.96547 -112.17421 11886 ft 293 kts 199°
2026-04-24 19:32 34.94598 -112.18060 11499 ft 287 kts 198°
2026-04-24 19:32 34.92683 -112.18684 11120 ft 283 kts 198°
2026-04-24 19:32 34.90822 -112.19298 10767 ft 278 kts 198°
2026-04-24 19:32 34.88956 -112.19915 10405 ft 276 kts 198°
2026-04-24 19:33 34.87117 -112.20520 10037 ft 270 kts 198°
2026-04-24 19:33 34.85427 -112.21285 9657 ft 249 kts 214°
2026-04-24 19:33 34.84098 -112.22533 9372 ft 236 kts 222°
2026-04-24 19:33 34.82861 -112.23797 9081 ft 228 kts 221°
2026-04-24 19:34 34.81656 -112.25008 8795 ft 221 kts 220°
2026-04-24 19:34 34.80397 -112.26070 8484 ft 220 kts 215°
2026-04-24 19:34 34.79196 -112.27171 8158 ft 213 kts 223°
2026-04-24 19:34 34.78158 -112.28370 7865 ft 200 kts 225°
2026-04-24 19:35 34.77178 -112.29422 7794 ft 182 kts 221°
2026-04-24 19:35 34.76209 -112.30420 7550 ft 181 kts 223°
2026-04-24 19:35 34.75275 -112.31436 7331 ft 179 kts 223°
2026-04-24 19:35 34.74348 -112.32435 7111 ft 177 kts 223°
2026-04-24 19:36 34.73447 -112.33392 6901 ft 165 kts 222°
2026-04-24 19:36 34.72605 -112.34292 6710 ft 159 kts 222°
2026-04-24 19:36 34.71803 -112.35153 6501 ft 147 kts 223°
2026-04-24 19:36 34.71061 -112.35945 6345 ft 137 kts 223°
2026-04-24 19:37 34.70361 -112.36694 6176 ft 133 kts 223°
2026-04-24 19:37 34.69658 -112.37445 5998 ft 134 kts 223°
2026-04-24 19:37 34.68953 -112.38200 5817 ft 133 kts 221°
2026-04-24 19:37 34.68252 -112.38952 5611 ft 137 kts 221°
2026-04-24 19:38 34.67558 -112.39713 5410 ft 133 kts 219°
2026-04-24 19:38 34.66861 -112.40452 5167 ft 135 kts 218°
2026-04-24 19:38 34.66162 -112.41194 5014 ft 132 kts 219°
2026-04-24 19:38 34.65514 -112.41879 5002 ft 108 kts 221°
2026-04-24 19:39 34.65127 -112.42291 5021 ft 37 kts 221°
2026-04-24 19:39 34.64967 -112.42461 5023 ft 17 kts 221°
2026-04-24 19:39 34.64927 -112.42539 5024 ft 9 kts 289°
2026-04-24 19:39 34.64965 -112.42595 5024 ft 8 kts 317°
2026-04-24 19:40 34.65010 -112.42645 5023 ft 6 kts 302°
2026-04-24 19:40 34.64996 -112.42689 5022 ft 6 kts 229°
2026-04-24 19:40 34.64994 -112.42692 5022 ft 0 kts 228°